FW7370 Weather Reports


time (UTC)temp
F
wind
direction
speed
knots
gust
knots
rain 1hr
in
rain 24hr
in
rain mn
in
humidity
%
barometer
mb
20260507114909 0 86 4.3 10.4 0.00 0.00 0.00 1026.7
20260507114409 0 99 3.5 10.4 0.00 0.00 0.00 1026.7
20260507113909 0 112 5.2 11.3 0.00 0.00 0.00 1026.5
20260507113409 0 72 2.6 11.3 0.00 0.00 0.00 1026.7
20260507112354 0 125 5.2 9.6 0.00 0.00 0.00 1026.6
20260507111854 0 95 3.5 9.6 0.00 0.00 0.00 1026.6
20260507111353 0 70 2.6 12.2 0.00 0.00 0.00 1026.2
20260507110853 0 97 5.2 12.2 0.00 0.00 0.00 1026.3
20260507105838 0 122 5.2 12.2 0.00 0.00 0.00 1026.4
20260507105338 0 115 7.8 12.2 0.00 0.00 0.00 1026.6
20260507104838 0 115 7.0 10.4 0.00 0.00 0.00 1026.4
20260507104337 0 113 4.3 10.4 0.00 0.00 0.00 1026.3
20260507103322 0 99 2.6 10.4 0.00 0.00 0.00 1026.3
20260507102821 0 99 4.3 10.4 0.00 0.00 0.00 1026.1
20260507102321 0 98 3.5 10.4 0.00 0.00 0.00 1026.1
20260507101822 0 81 3.5 10.4 0.00 0.00 0.00 1026.0
20260507101321 0 96 1.7 10.4 0.00 0.00 0.00 1026.2
20260507100822 0 107 5.2 10.4 0.00 0.00 0.00 1026.0
20260507100321 0 111 3.5 10.4 0.00 0.00 0.00 1025.9
20260507095821 0 109 3.5 10.4 0.00 0.00 0.00 1026.1
20260507094806 0 60 3.5 10.4 0.00 0.00 0.00 1026.1
20260507094306 0 84 3.5 10.4 0.00 0.00 0.00 1026.1
20260507093807 0 98 3.5 12.2 0.00 0.00 0.00 1025.9
20260507093306 0 111 5.2 12.2 0.00 0.00 0.00 1025.7
20260507092805 0 105 6.1 12.2 0.00 0.00 0.00 1025.9
20260507092307 0 107 4.3 10.4 0.00 0.00 0.00 1025.5
20260507091250 0 73 2.6 10.4 0.00 0.00 0.00 1025.6
20260507090750 0 79 3.5 10.4 0.00 0.00 0.00 1025.7
20260507090250 0 69 3.5 10.4 0.00 0.00 0.00 1025.5
20260507085750 0 87 3.5 10.4 0.00 0.00 0.00 1025.3
20260507085249 0 97 3.5 10.4 0.00 0.00 0.00 1025.6
20260507084233 0 108 6.1 10.4 0.00 0.00 0.00 1025.6
20260507083733 0 105 5.2 10.4 0.00 0.00 0.00 1025.5
20260507083234 0 101 3.5 10.4 0.00 0.00 0.00 1025.2
20260507082734 0 110 6.1 10.4 0.00 0.00 0.00 1025.6
20260507082234 0 79 4.3 9.6 0.00 0.00 0.00 1025.6
20260507081218 0 76 4.3 9.6 0.00 0.00 0.00 1025.3
20260507080718 0 66 2.6 9.6 0.00 0.00 0.00 1025.2
20260507080218 0 64 2.6 9.6 0.00 0.00 0.00 1025.6
20260507075718 0 81 4.3 9.6 0.00 0.00 0.00 1025.3
20260507075217 0 77 1.7 9.6 0.00 0.00 0.00 1025.4
20260507074717 0 103 4.3 9.6 0.00 0.00 0.00 1025.2
20260507074216 0 71 3.5 9.6 0.00 0.00 0.00 1025.4
20260507073716 0 93 2.6 9.6 0.00 0.00 0.00 1025.6
20260507073216 0 86 2.6 9.6 0.00 0.00 0.00 1025.7
20260507072715 0 87 2.6 10.4 0.00 0.00 0.00 1025.5
20260507071659 0 91 4.3 10.4 0.00 0.00 0.00 1025.4
20260507071200 0 96 6.1 10.4 0.00 0.00 0.00 1025.3
20260507070700 0 100 7.0 10.4 0.00 0.00 0.00 1025.8
20260507070200 0 82 4.3 10.4 0.00 0.00 0.00 1025.5
20260507065700 0 95 3.5 10.4 0.00 0.00 0.00 1025.8
20260507065200 0 104 4.3 9.6 0.00 0.00 0.00 1025.7
20260507064700 0 94 4.3 9.6 0.00 0.00 0.00 1025.6
20260507064200 0 96 5.2 9.6 0.00 0.00 0.00 1025.8
20260507063700 0 75 3.5 9.6 0.00 0.00 0.00 1025.6
20260507062644 0 100 4.3 9.6 0.00 0.00 0.00 1025.8
20260507062143 0 114 6.1 9.6 0.00 0.00 0.00 1025.9
20260507061128 0 101 2.6 9.6 0.00 0.00 0.00 1026.2
20260507060628 0 73 1.7 9.6 0.00 0.00 0.00 1026.2
20260507060128 0 88 2.6 9.6 0.00 0.00 0.00 1026.2
20260507055627 0 92 2.6 9.6 0.00 0.00 0.00 1026.0
20260507055127 0 88 2.6 9.6 0.00 0.00 0.00 1026.3
20260507054627 0 102 3.5 9.6 0.00 0.00 0.00 1026.5
20260507054127 0 102 3.5 10.4 0.00 0.00 0.00 1026.6
20260507053627 0 74 3.5 10.4 0.00 0.00 0.00 1026.2
20260507051542 0 109 7.0 12.2 0.00 0.00 0.00 1026.7
20260507051042 0 95 4.3 10.4 0.00 0.00 0.00 1026.4
20260507050542 0 93 5.2 10.4 0.00 0.00 0.00 1026.6
20260507045527 0 18 4.3 10.4 0.00 0.00 0.00 1026.6
20260507045026 0 86 4.3 10.4 0.00 0.00 0.00 1027.3
20260507044526 0 92 3.5 10.4 0.00 0.00 0.00 1027.2
20260507044026 0 86 2.6 10.4 0.00 0.00 0.00 1026.9
20260507043526 0 90 2.6 10.4 0.00 0.00 0.00 1027.3
20260507043026 0 72 5.2 10.4 0.00 0.00 0.00 1027.0
20260507042527 0 95 3.5 10.4 0.00 0.00 0.00 1027.3
20260507042026 0 57 3.5 10.4 0.00 0.00 0.00 1027.4
20260507041526 0 38 2.6 11.3 0.00 0.00 0.00 1027.2
20260507041026 0 54 3.5 11.3 0.00 0.00 0.00 1027.4
20260507035456 0 66 2.6 11.3 0.00 0.00 0.00 1027.3
20260507034956 0 77 2.6 11.3 0.00 0.00 0.00 1027.6
20260507034456 0 78 2.6 11.3 0.00 0.00 0.00 1027.6
20260507033441 0 88 4.3 12.2 0.00 0.00 0.00 1027.6
20260507032426 0 106 7.8 12.2 0.00 0.00 0.00 1027.7
20260507031926 0 96 7.0 12.2 0.00 0.00 0.00 1027.6
20260507031426 0 103 5.2 11.3 0.00 0.00 0.00 1027.7
20260507030926 0 97 5.2 11.3 0.00 0.00 0.00 1027.6
20260507030426 0 90 4.3 13.0 0.00 0.00 0.00 1027.7
20260507025926 0 94 5.2 13.0 0.00 0.00 0.00 1028.1
20260507025426 0 98 5.2 13.0 0.00 0.00 0.00 1027.9
20260507024926 0 66 5.2 13.0 0.00 0.00 0.00 1027.9
20260507024426 0 109 7.0 13.0 0.00 0.00 0.00 1028.2
20260507023926 0 100 4.3 10.4 0.00 0.00 0.00 1028.1
20260507023426 0 95 2.6 9.6 0.00 0.00 0.00 1027.8
20260507022926 0 37 3.5 9.6 0.00 0.00 0.00 1027.7
20260507021910 0 97 2.6 9.6 0.00 0.00 0.00 1027.9
20260507021410 0 29 5.2 9.6 0.00 0.00 0.00 1027.5
20260507020910 0 78 3.5 9.6 0.00 0.00 0.00 1028.0
20260507020410 0 46 3.5 9.6 0.00 0.00 0.00 1027.7
20260507015910 0 85 2.6 9.6 0.00 0.00 0.00 1027.9
20260507015410 0 79 4.3 10.4 0.00 0.00 0.00 1027.9
20260507014910 0 38 5.2 10.4 0.00 0.00 0.00 1027.6
20260507014410 0 90 5.2 10.4 0.00 0.00 0.00 1027.7
20260507013910 0 79 5.2 10.4 0.00 0.00 0.00 1027.6
20260507013410 0 72 5.2 10.4 0.00 0.00 0.00 1027.6
20260507012910 0 81 3.5 9.6 0.00 0.00 0.00 1027.5
20260507012410 0 61 3.5 9.6 0.00 0.00 0.00 1027.8
20260507011355 0 79 3.5 9.6 0.00 0.00 0.00 1027.9
20260507010340 0 41 1.7 9.6 0.00 0.00 0.00 1027.4
20260507005840 0 58 2.6 9.6 0.00 0.00 0.00 1027.1
20260507005340 0 82 3.5 9.6 0.00 0.00 0.00 1027.2
20260507004839 0 71 4.3 9.6 0.00 0.00 0.00 1027.4
20260507004339 0 91 5.2 9.6 0.00 0.00 0.00 1027.1
20260507003839 0 102 2.6 9.6 0.00 0.00 0.00 1027.4
20260507002824 0 71 3.5 12.2 0.00 0.00 0.00 1027.1
20260507002323 0 87 4.3 13.0 0.00 0.00 0.00 1027.0
20260507001822 0 84 5.2 13.0 0.00 0.00 0.00 1027.0
20260507001322 0 106 7.8 12.2 0.00 0.00 0.00 1026.9
20260507000822 0 101 7.0 10.4 0.00 0.00 0.00 1027.2
20260507000322 0 101 4.3 10.4 0.00 0.00 0.00 1027.0
20260506235822 0 91 5.2 10.4 0.00 0.00 0.00 1026.8
20260506235322 0 85 5.2 12.2 0.00 0.00 0.00 1026.8
20260506234305 0 87 4.3 12.2 0.00 0.00 0.00 1026.6
20260506233805 0 121 6.1 12.2 0.00 0.00 0.00 1026.4
20260506233305 0 65 3.5 12.2 0.00 0.00 0.00 1026.5
20260506232805 0 87 6.1 12.2 0.00 0.00 0.00 1026.4
20260506232306 0 96 5.2 12.2 0.00 0.00 0.00 1026.4
20260506231805 0 102 6.1 11.3 0.00 0.00 0.00 1026.1
20260506231305 0 112 5.2 11.3 0.00 0.00 0.00 1026.2
20260506230804 0 85 4.3 11.3 0.00 0.00 0.00 1026.1
20260506230304 0 84 6.1 10.4 0.00 0.00 0.00 1026.3
20260506225803 0 114 7.8 10.4 0.00 0.00 0.00 1026.3
20260506225305 0 105 7.0 10.4 0.00 0.00 0.00 1026.2
20260506224247 0 75 4.3 11.3 0.00 0.00 0.00 1025.8
20260506223747 0 108 7.0 11.3 0.00 0.00 0.00 1025.7
20260506223247 0 91 5.2 11.3 0.00 0.00 0.00 1025.7
20260506222232 0 80 6.1 11.3 0.00 0.00 0.00 1025.8
20260506221732 0 97 7.0 13.0 0.00 0.00 0.00 1025.5
20260506220716 0 52 5.2 13.9 0.00 0.00 0.00 1025.5
20260506215144 0 102 6.1 12.2 0.00 0.00 0.00 1025.8
20260506214644 0 83 4.3 12.2 0.00 0.00 0.00 1025.4
20260506213627 0 103 7.0 14.8 0.00 0.00 0.00 1025.3
20260506213127 0 105 6.1 11.3 0.00 0.00 0.00 1025.5
20260506212111 0 87 7.0 13.9 0.00 0.00 0.00 1025.3
20260506211611 0 86 5.2 16.5 0.00 0.00 0.00 1025.5
20260506211111 0 88 7.0 16.5 0.00 0.00 0.00 1025.2
20260506210056 0 126 7.8 13.0 0.00 0.00 0.00 1025.3
20260506205556 0 110 7.8 13.9 0.00 0.00 0.00 1025.3
20260506205056 0 119 7.8 17.4 0.00 0.00 0.00 1025.5
20260506204556 0 117 8.7 13.9 0.00 0.00 0.00 1025.3
20260506204056 0 109 8.7 14.8 0.00 0.00 0.00 1025.1
20260506203556 0 104 5.2 14.8 0.00 0.00 0.00 1025.1
20260506203056 0 90 7.0 13.0 0.00 0.00 0.00 1025.1
20260506202556 0 111 7.0 13.0 0.00 0.00 0.00 1025.1
20260506202056 0 111 7.0 16.5 0.00 0.00 0.00 1025.2
20260506201556 0 113 7.0 16.5 0.00 0.00 0.00 1025.2
20260506201057 0 123 7.8 16.5 0.00 0.00 0.00 1025.3
20260506200556 0 112 9.6 16.5 0.00 0.00 0.00 1025.3
20260506200057 0 114 10.4 14.8 0.00 0.00 0.00 1025.2
20260506195556 0 105 7.0 13.9 0.00 0.00 0.00 1025.5
20260506194540 0 104 8.7 14.8 0.00 0.00 0.00 1025.4
20260506193525 0 108 9.6 16.5 0.00 0.00 0.00 1025.6
20260506193025 0 108 7.0 16.5 0.00 0.00 0.00 1025.6
20260506192525 0 114 8.7 13.9 0.00 0.00 0.00 1025.6
20260506192026 0 108 7.0 13.9 0.00 0.00 0.00 1025.6
20260506191526 0 119 7.8 13.9 0.00 0.00 0.00 1025.7
20260506191025 0 120 8.7 13.0 0.00 0.00 0.00 1025.7
20260506190524 0 113 7.8 13.9 0.00 0.00 0.00 1025.7
20260506190024 0 97 7.8 13.9 0.00 0.00 0.00 1025.7
20260506185524 0 107 6.1 13.9 0.00 0.00 0.00 1025.7
20260506185024 0 108 9.6 13.9 0.00 0.00 0.00 1026.0
20260506184525 0 111 8.7 13.0 0.00 0.00 0.00 1026.0
20260506184025 0 101 7.0 14.8 0.00 0.00 0.00 1026.4
20260506182454 0 129 10.4 17.4 0.00 0.00 0.00 1026.7
20260506181954 0 124 9.6 16.5 0.00 0.00 0.00 1026.1
20260506181453 0 122 8.7 13.9 0.00 0.00 0.00 1026.6
20260506180954 0 123 9.6 18.2 0.00 0.00 0.00 1026.5
20260506180454 0 117 8.7 18.2 0.00 0.00 0.00 1026.3
20260506175953 0 126 10.4 16.5 0.00 0.00 0.00 1026.4
20260506175454 0 126 11.3 16.5 0.00 0.00 0.00 1026.8
20260506174954 0 130 9.6 13.9 0.00 0.00 0.00 1026.4
20260506174454 0 122 9.6 16.5 0.00 0.00 0.00 1026.8
20260506173954 0 131 9.6 16.5 0.00 0.00 0.00 1026.4
20260506173454 0 122 10.4 17.4 0.00 0.00 0.00 1026.8
20260506172953 0 115 12.2 17.4 0.00 0.00 0.00 1027.0
20260506172454 0 126 11.3 20.0 0.00 0.00 0.00 1026.9
20260506171954 0 123 8.7 16.5 0.00 0.00 0.00 1027.2
20260506171453 0 114 9.6 13.9 0.00 0.00 0.00 1027.2
20260506170953 0 119 9.6 13.0 0.00 0.00 0.00 1027.0
20260506165937 0 125 7.0 16.5 0.00 0.00 0.00 1027.3
20260506165436 0 119 7.8 16.5 0.00 0.00 0.00 1027.4
20260506164936 0 100 7.8 14.8 0.00 0.00 0.00 1027.4
20260506164436 0 133 9.6 13.9 0.00 0.00 0.00 1027.7
20260506163935 0 115 8.7 13.0 0.00 0.00 0.00 1027.3
20260506163435 0 129 8.7 14.8 0.00 0.00 0.00 1027.3
20260506162935 0 127 9.6 14.8 0.00 0.00 0.00 1027.3
20260506162435 0 115 9.6 20.9 0.00 0.00 0.00 1027.4
20260506161935 0 119 8.7 20.9 0.00 0.00 0.00 1027.5
20260506160919 0 121 11.3 17.4 0.00 0.00 0.00 1027.6
20260506160419 0 122 12.2 16.5 0.00 0.00 0.00 1027.5
20260506155919 0 118 8.7 14.8 0.00 0.00 0.00 1027.9
20260506155419 0 128 7.0 14.8 0.00 0.00 0.00 1027.8
20260506154919 0 108 7.0 14.8 0.00 0.00 0.00 1028.2
20260506154419 0 125 8.7 14.8 0.00 0.00 0.00 1027.8
20260506153919 0 116 9.6 14.8 0.00 0.00 0.00 1028.0
20260506153418 0 123 7.8 17.4 0.00 0.00 0.00 1027.9
20260506152918 0 138 7.8 17.4 0.00 0.00 0.00 1028.3
20260506152417 0 114 8.7 16.5 0.00 0.00 0.00 1028.3
20260506151917 0 125 8.7 17.4 0.00 0.00 0.00 1028.2
20260506150901 0 115 8.7 13.9 0.00 0.00 0.00 1028.3
20260506150401 0 118 7.8 13.9 0.00 0.00 0.00 1028.0
20260506145900 0 110 5.2 16.5 0.00 0.00 0.00 1028.2
20260506145400 0 131 10.4 14.8 0.00 0.00 0.00 1028.2
20260506144900 0 112 8.7 16.5 0.00 0.00 0.00 1028.2
20260506144400 0 125 7.0 16.5 0.00 0.00 0.00 1028.2
20260506143344 0 109 7.0 14.8 0.00 0.00 0.00 1028.3
20260506142844 0 112 8.7 13.9 0.00 0.00 0.00 1028.3
20260506142344 0 113 10.4 12.2 0.00 0.00 0.00 1028.1
20260506141329 0 115 10.4 19.1 0.00 0.00 0.00 1028.1
20260506140829 0 109 7.8 14.8 0.00 0.00 0.00 1027.9
20260506135813 0 135 8.7 13.9 0.00 0.00 0.00 1028.0
20260506135313 0 109 9.6 14.8 0.00 0.00 0.00 1028.3
20260506134813 0 104 8.7 17.4 0.00 0.00 0.00 1028.3
20260506134313 0 116 10.4 18.2 0.00 0.00 0.00 1028.3
20260506133257 0 108 7.0 14.8 0.00 0.00 0.00 1028.2
20260506132757 0 113 7.0 13.0 0.00 0.00 0.00 1028.3
20260506132256 0 99 7.8 13.0 0.00 0.00 0.00 1028.2
20260506131756 0 83 6.1 14.8 0.00 0.00 0.00 1028.3
20260506131256 0 109 9.6 17.4 0.00 0.00 0.00 1028.4
20260506130756 0 113 7.8 17.4 0.00 0.00 0.00 1028.3
20260506130256 0 101 11.3 16.5 0.00 0.00 0.00 1028.2
20260506125756 0 76 7.0 12.2 0.00 0.00 0.00 1028.0
20260506125255 0 94 7.8 14.8 0.00 0.00 0.00 1027.9
20260506124755 0 98 7.8 14.8 0.00 0.00 0.00 1028.1
20260506124255 0 108 7.0 16.5 0.00 0.00 0.00 1027.9
20260506123755 0 107 10.4 16.5 0.00 0.00 0.00 1028.0
20260506123254 0 90 6.1 13.0 0.00 0.00 0.00 1027.8
20260506122238 0 118 6.1 16.5 0.00 0.00 0.00 1028.0
20260506120708 0 83 5.2 13.9 0.00 0.00 0.00 1028.0
20260506120208 0 109 7.8 14.8 0.00 0.00 0.00 1027.9
20260506115708 0 108 7.0 14.8 0.00 0.00 0.00 1027.6